Close Search

Base
°C
Summit
°C

WEATHER AT A GLANCE

Image Slideshow

RMR Village

Revelstoke Mountain Resort -  RMR Village Webcam

Top of The Stoke

Revelstoke Mountain Resort -  Top of The Stoke Webcam

Top of Stellar

Revelstoke Mountain Resort -  Top of Stellar Webcam

Mackenzie Outpost

Revelstoke Mountain Resort -  Mackenzie Outpost Webcam

Ripper

Revelstoke Mountain Resort -  Ripper Webcam
Base
°C
Summit
°C
Wind (Summit)
km/h

Today's Forecast

Subpeak Weather

Time Avg. Air Temp Dew Point Avg. Rel Humidity Avg. 2 Min Wind Speed Max Gust Velocity MGV Time MGV Direction Avg. Spot Wind Velocity
2026-05-09 23:40:005° C-1° C67%25 km/h30 km/h23:36:00S25 km/h
22:40:005° C-1° C67%27 km/h32 km/h22:40:00S26 km/h
21:40:005° C-1° C65%24 km/h30 km/h21:37:00S23 km/h
20:40:005° C-2° C62%19 km/h22 km/h20:37:00S20 km/h
19:40:005° C-2° C59%16 km/h22 km/h19:36:00S19 km/h
18:40:006° C-1° C61%11 km/h15 km/h18:36:00S10 km/h
17:40:006° C-1° C60%14 km/h20 km/h17:40:00S13 km/h
16:40:006° C-1° C62%11 km/h21 km/h16:37:00S12 km/h
15:40:005° C-1° C62%16 km/h21 km/h15:37:00SW15 km/h
14:40:005° C-3° C60%9 km/h18 km/h14:38:00S9 km/h
13:40:004° C-1° C69%11 km/h19 km/h13:38:00SW11 km/h
12:40:003° C1° C84%11 km/h16 km/h12:37:00SE13 km/h
11:40:002° C2° C99%8 km/h11 km/h11:39:00SE6 km/h
10:40:002° C1° C97%0 km/h2 km/h10:36:00NE0 km/h
09:40:002° C1° C92%0 km/h3 km/h09:38:00S2 km/h
08:40:001° C-0° C90%4 km/h6 km/h08:36:00S4 km/h
07:40:001° C-1° C92%0 km/h4 km/h07:37:00W1 km/h
06:40:00-0° C-0° C100%8 km/h11 km/h06:40:00NW9 km/h
05:40:00-1° C-2° C100%15 km/h22 km/h05:36:00NW15 km/h
04:40:00-1° C-1° C100%9 km/h18 km/h04:37:00NW12 km/h
03:40:00-1° C-1° C100%16 km/h18 km/h03:39:00NW16 km/h
02:40:00-1° C-1° C100%15 km/h16 km/h02:37:00NW13 km/h
01:40:00-0° C-0° C100%19 km/h21 km/h01:40:00NW19 km/h
00:40:000° C0° C100%12 km/h15 km/h00:40:00W11 km/h

Time Avg. Air Temp Dew Point Avg. Rel Humidity Avg. 2 Min Wind Speed Max Gust Velocity MGV Time MGV Direction Avg. Spot Wind Velocity
2026-05-09 23:40:005° C-1° C67%25 km/h30 km/h23:36:00S25 km/h
23:35:005° C-1° C67%28 km/h33 km/h23:33:00S29 km/h
23:30:005° C-1° C66%24 km/h32 km/h23:26:00S23 km/h
23:25:005° C-0° C68%31 km/h34 km/h23:25:00S30 km/h
23:20:005° C-1° C68%25 km/h36 km/h23:16:00S28 km/h
23:15:005° C-0° C68%26 km/h31 km/h23:14:00SE28 km/h
23:10:005° C-0° C67%30 km/h32 km/h23:10:00S26 km/h
23:05:005° C-1° C67%26 km/h34 km/h23:02:00S28 km/h
23:00:005° C-1° C68%28 km/h34 km/h23:00:00S27 km/h
22:55:005° C-1° C66%30 km/h37 km/h22:54:00S27 km/h
22:50:005° C-1° C67%28 km/h33 km/h22:48:00S26 km/h
22:45:005° C-1° C66%30 km/h33 km/h22:43:00SE29 km/h
22:40:005° C-1° C67%27 km/h32 km/h22:40:00S26 km/h

We value your privacy
We use cookies to enhance your browsing experience, serve personalized ads or content, and analyze our traffic. By clicking "Allow Cookies", you consent to our use of cookies. For additional details view our Privacy Policy.
Cookie preferences

You can control how your data is used on our website. Learn more below about the cookies we use by reviewing our Privacy Policy.

Your cookie preferences have been saved.